This is the latest recevied weather packets stored in our database for station/object EA1IDU-12. If no packets are shown the sender has not sent any weather packets the latest 10 day(s).
| Time | Temp. | Humidity | Pressure | Rain* | Wind** | Luminosity | Snow |
|---|---|---|---|---|---|---|---|
| 1788552613 | 25.56° C | 22% | 1031.8 hPa | - | - | - | - |
| 1788551713 | 25.56° C | 21% | 1031.8 hPa | - | - | - | - |
| 1788550812 | 26.11° C | 21% | 1031.5 hPa | - | - | - | - |
| 1788549912 | 26.67° C | 20% | 1031.1 hPa | - | - | - | - |
| 1788549012 | 27.22° C | 20% | 1030.9 hPa | - | - | - | - |
| 1788548112 | 28.33° C | 19% | 1030.6 hPa | - | - | - | - |
| 1788547212 | 29.44° C | 18% | 1030.6 hPa | - | - | - | - |
| 1788546312 | 30.56° C | 17% | 1030.5 hPa | - | - | - | - |
| 1788545411 | 32.22° C | 16% | 1030.3 hPa | - | - | - | - |
| 1788544511 | 33.89° C | 14% | 1030.4 hPa | - | - | - | - |
| 1788543611 | 35° C | 14% | 1030.4 hPa | - | - | - | - |
| 1788542711 | 36.11° C | 14% | 1030.4 hPa | - | - | - | - |
| 1788541811 | 36.67° C | 13% | 1030.4 hPa | - | - | - | - |
| 1788540911 | 35.56° C | 14% | 1030.3 hPa | - | - | - | - |
| 1788540010 | 35° C | 13% | 1030.3 hPa | - | - | - | - |
| 1788539110 | 36.11° C | 13% | 1030.4 hPa | - | - | - | - |
| 1788538234 | 36.67° C | 12% | 1030.4 hPa | - | - | - | - |
| 1788537310 | 37.22° C | 13% | 1030.5 hPa | - | - | - | - |
| 1788536410 | 38.33° C | 12% | 1030.5 hPa | - | - | - | - |
| 1788535510 | 38.89° C | 11% | 1030.4 hPa | - | - | - | - |
| 1788534609 | 40° C | 11% | 1030.4 hPa | - | - | - | - |
| 1788533709 | 40° C | 11% | 1030.5 hPa | - | - | - | - |
| 1788532809 | 40° C | 12% | 1030.8 hPa | - | - | - | - |
| 1788531909 | 39.44° C | 12% | 1030.8 hPa | - | - | - | - |
| 1788531009 | 38.89° C | 12% | 1031.1 hPa | - | - | - | - |
* Rain since midnight (hover to see other rain measurements)
** Current wind speed in m/s (hover to see current wind gust speed)